User: anonymous
Location: Unspecified
(0.0000°N, 0.0000°E)
Time: 13:14:03
(UTC+02:00)
Language:

Meteor 2-8 Rocket - Orbit

View from above orbital plane
View from above orbital plane
View from above satellite
View from above satellite

Ground track
Ground track

The orbit data is extracted from the following two-line orbital elements,

1 13114U 82025B   14110.21494958  .00000021  00000-0  55707-5 0  3655
2 13114 082.5429 040.9701 0015462 147.7267 015.5717 13.84623786620715
Epoch (UTC): 20 April 2014 05:09:31
Eccentricity: 0.0015462
inclination: 82.5429°
perigee height: 936 km
apogee height: 959 km
right ascension of ascending node: 40.9701°
argument of perigee: 147.7267°
revolutions per day: 13.84623786
mean anomaly at epoch: 15.5717°
orbit number at epoch: 62071

The dashed part of the orbit path shows where the satellite is in the earth's shadow,  

DLR